Location: Caltech
(34.1382°N, 118.1253°W)
Time: 17:32:59
(UTC-07:00)

TMSAT-1 - Visible Passes

Search period start: 27 March 2015 00:00
Search period end: 06 April 2015 00:00
Orbit: 809 x 813 km, 98.5° (Epoch: 26 March)

Date Brightness Start Highest point End Pass type
(mag) Time Alt. Az. Time Alt. Az. Time Alt. Az.
27 Mar 11.1 03:34:45 10° NNE 03:36:41 23° NNE 03:36:41 23° NNE visible
27 Mar 11.2 05:17:29 10° NW 05:17:52 11° NW 05:17:52 11° NW visible
28 Mar 11.5 03:11:32 10° NNE 03:13:04 19° NE 03:13:04 19° NE visible
28 Mar 10.9 04:52:22 10° NNW 04:54:15 17° NW 04:54:15 17° NW visible
29 Mar 11.8 02:48:38 10° NE 02:49:27 13° NE 02:49:27 13° NE visible
29 Mar 10.6 04:28:11 10° N 04:30:37 23° NNW 04:30:37 23° NNW visible
30 Mar 10.5 04:04:21 10° N 04:06:59 29° N 04:06:59 29° N visible
31 Mar 10.7 03:40:48 10° NNE 03:43:21 30° NNE 03:43:21 30° NNE visible
01 Apr 11.1 03:17:29 10° NNE 03:19:44 25° NE 03:19:44 25° NE visible
01 Apr 10.9 04:58:43 10° NNW 05:00:54 16° NW 05:00:54 16° NW visible
02 Apr 11.5 02:54:29 10° NE 02:56:06 18° NE 02:56:06 18° NE visible
02 Apr 10.5 04:34:23 10° NNW 04:37:16 24° NW 04:37:16 24° NW visible
03 Apr 12.0 02:32:02 10° NE 02:32:28 11° ENE 02:32:28 11° ENE visible
03 Apr 10.2 04:10:29 10° N 04:13:38 33° NNW 04:13:38 33° NNW visible
04 Apr 10.2 03:46:51 10° N 03:50:00 37° N 03:50:00 37° N visible
05 Apr 10.6 03:23:28 10° NNE 03:26:22 32° NE 03:26:22 32° NE visible
05 Apr 10.9 05:05:09 10° NNW 05:07:32 15° WNW 05:07:32 15° WNW visible
